Location: Pedholt
(56.0260°N, 10.2097°E)
Time: 02:08:58
(UTC+00:00)

A-11 Canister half - Pass Details

Date: 02 August 2021
Orbit: 1514 x 1685 km, 47.2° (Epoch: 16 September)

Event Time Altitude Azimuth Distance (km) Brightness Sun altitude
Rises 22:39:26 0° 283° (WNW) 4,913 12.0 -15.8°
Reaches altitude 10° 22:43:31 10° 270° (W) 3,939 11.3 -15.9°
Maximum altitude 22:50:31 22° 225° (SW) 3,109 10.3 -16.1°
Enters shadow 22:54:30 17° 196° (SSW) 3,402 10.3 -16.2°
Drops below altitude 10° 22:57:32 10° 180° (S) 3,940 - -16.2°
Sets 23:01:39 0° 167° (SSE) 4,914 - -16.3°
